Moosic, PA

6:58 PM EDT on July 24, 2016 (GMT -0400)
Wilkes-Barre-Scranton International

Weather History for KAVP - July, 2013

Change the Weather History Date:

Monday, July 15, 2013

  Actual Average Record
Temperature  
Mean Temperature 80 °F 72 °F  
Max Temperature 92 °F 82 °F 100 °F (1995)
Min Temperature 68 °F 61 °F 49 °F (1924)
Degree Days  
Heating Degree Days 0 0  
Month to date heating degree days 0 0  
Since 1 June heating degree days 21 54  
Since 1 July heating degree days 0 0  
Cooling Degree Days 15 7  
Month to date cooling degree days 179 100  
Year to date cooling degree days 379 254  
Since 1 June cooling degree days 315 217  
Growing Degree Days 30 (Base 50)    
Moisture  
Dew Point 68 °F    
Average Humidity 70    
Maximum Humidity 93    
Minimum Humidity 47    
Precipitation  
Precipitation 0.00 in 0.12 in 3.48 in (1945)
Month to date precipitation 0.71 1.76  
Year to date precipitation 15.89 19.59  
Sea Level Pressure  
Sea Level Pressure 30.24 in    
Wind  
Wind Speed 4 mph (NW)    
Max Wind Speed 13 mph    
Max Gust Speed 17 mph    
Visibility 10 miles    
Events      
T = Trace of Precipitation, MM = Missing Value Source: NWS Daily Summary

Daily Weather History Graph

Daily Weather History Graph

Search for Another Location

Airport or City:

Trip Planner

Search our weather history database for the weather conditions in past years. The results will help you decide how hot, cold, wet, or windy it might be!

Date:

Astronomy

Jul. 15, 2013 Rise Set
Actual Time 5:42 AM EDT 8:34 PM EDT
Civil Twilight 5:10 AM EDT 9:07 PM EDT
Nautical Twilight 4:28 AM EDT 9:48 PM EDT
Astronomical Twilight 3:40 AM EDT 10:36 PM EDT
Moon 1:05 PM EDT (7/15) No Moon Set
Length of Visible Light 15h 57m
Length of Day
14h 51m
Waxing Crescent, 45% of the Moon is Illuminated
Jul 15
Waxing Crescent
Jul 15
First Quarter
Jul 22
Full
Jul 29
Last Quarter
Aug 6
New

Hourly Weather History & Observations

Time (EDT) Temp. Heat Index Dew Point Humidity Pressure Visibility Wind Dir Wind Speed Gust Speed Precip Events Conditions
12:54 AM 72.0 °F - 66.9 °F 84% 30.27 in 10.0 mi Calm Calm - N/A   Clear
1:54 AM 71.1 °F - 66.9 °F 87% 30.27 in 10.0 mi Calm Calm - N/A   Clear
2:54 AM 71.1 °F - 66.9 °F 87% 30.27 in 10.0 mi Calm Calm - N/A   Clear
3:54 AM 72.0 °F - 68.0 °F 87% 30.27 in 10.0 mi Calm Calm - N/A   Clear
4:54 AM 69.1 °F - 66.0 °F 90% 30.27 in 10.0 mi Calm Calm - N/A   Clear
5:54 AM 68.0 °F - 66.0 °F 93% 30.28 in 8.0 mi Calm Calm - N/A   Clear
6:54 AM 71.1 °F - 66.9 °F 87% 30.28 in 10.0 mi Calm Calm - N/A   Clear
7:54 AM 75.9 °F - 69.1 °F 79% 30.29 in 10.0 mi SW 3.5 mph - N/A   Partly Cloudy
8:54 AM 79.0 °F - 69.1 °F 72% 30.29 in 10.0 mi Variable 3.5 mph - N/A   Clear
9:54 AM 82.0 °F 85.5 °F 69.1 °F 65% 30.27 in 10.0 mi Variable 3.5 mph - N/A   Clear
10:54 AM 84.0 °F 88.4 °F 70.0 °F 63% 30.27 in 10.0 mi West 5.8 mph - N/A   Clear
11:54 AM 86.0 °F 91.5 °F 71.1 °F 61% 30.26 in 10.0 mi Variable 4.6 mph - N/A   Partly Cloudy
12:54 PM 88.0 °F 92.9 °F 70.0 °F 55% 30.25 in 10.0 mi North 5.8 mph - N/A   Mostly Cloudy
1:54 PM 89.1 °F 93.7 °F 69.1 °F 52% 30.24 in 10.0 mi NNW 10.4 mph - N/A   Mostly Cloudy
2:54 PM 90.0 °F 92.8 °F 66.9 °F 46% 30.23 in 10.0 mi NNW 6.9 mph - N/A   Mostly Cloudy
3:54 PM 90.0 °F 93.6 °F 68.0 °F 48% 30.22 in 10.0 mi NW 8.1 mph - N/A   Scattered Clouds
4:54 PM 90.0 °F 93.6 °F 68.0 °F 48% 30.20 in 10.0 mi NW 8.1 mph - N/A   Scattered Clouds
5:54 PM 90.0 °F 94.5 °F 69.1 °F 50% 30.19 in 10.0 mi NW 6.9 mph - N/A   Clear
6:54 PM 89.1 °F 92.1 °F 66.9 °F 48% 30.19 in 10.0 mi NNW 9.2 mph - N/A   Clear
7:54 PM 87.1 °F 89.9 °F 66.9 °F 51% 30.19 in 10.0 mi NNW 5.8 mph - N/A   Clear
8:54 PM 82.9 °F 85.8 °F 68.0 °F 60% 30.19 in 10.0 mi North 4.6 mph - N/A   Clear
9:54 PM 77.0 °F - 69.1 °F 76% 30.21 in 10.0 mi Calm Calm - N/A   Clear
10:54 PM 73.9 °F - 68.0 °F 82% 30.21 in 10.0 mi Calm Calm - N/A   Clear
11:54 PM 73.9 °F - 68.0 °F 82% 30.22 in 10.0 mi Calm Calm - N/A   Clear